RH
22 16 12 10 10 10 12 13 15 14 14 15 14 16 18 19 18 18 19 20 17 14 12 12 13 13 21 28 29 31 36 37 39 41 50 43 33 27 26 29 29 34 37 39 42 40 39
30 20 16 12 10 10 12 13 15 15 14 16 16 16 18 17 18 18 19 20 21 13 12 13 12 13 20 26 25 38 42 44 42 48 48 42 38 32 33 35 39 36 36 39 40 40 40
24 29 20 16 12 11 12 13 14 15 15 14 18 17 17 17 20 20 18 22 27 20 11 16 13 21 19 26 21 40 45 46 46 47 51 41 40 37 33 40 38 38 43 41 40 41 42
15 26 28 22 15 11 12 13 14 16 16 15 15 20 19 18 21 22 23 24 27 20 17 12 10 18 20 18 20 28 44 44 47 46 44 42 40 36 39 41 39 41 37 49 42 43 46
32 16 26 29 22 14 12 13 14 15 17 17 16 17 21 20 22 24 28 29 26 22 18 13 13 20 26 21 23 25 38 45 47 47 44 42 43 42 42 46 41 38 40 32 47 37 41
74 35 16 26 28 21 14 13 14 15 17 18 18 17 22 20 25 28 30 31 32 22 20 18 18 24 20 26 24 27 34 46 44 47 46 45 41 46 41 42 56 47 31 29 30 39 35
79 74 33 17 25 27 19 14 14 15 16 18 19 18 23 27 27 32 32 32 34 33 16 18 20 18 16 26 24 25 34 36 43 40 41 38 47 56 46 45 42 42 40 35 33 27 30
86 84 70 34 18 25 26 18 14 15 16 18 19 20 23 32 31 33 33 32 32 27 25 15 14 12 12 24 27 19 21 24 30 32 26 35 37 29 34 34 34 29 32 36 32 24 23
97 90 84 70 39 19 26 25 17 15 16 17 19 20 22 33 34 36 37 35 30 28 29 25 16 18 16 21 23 19 20 20 20 18 19 26 21 19 25 26 29 29 35 38 32 23 20
100 96 88 84 76 44 20 26 23 17 16 17 19 20 21 29 36 36 37 36 30 35 44 33 24 21 22 18 21 14 14 20 18 22 20 20 15 18 21 24 25 29 20 20 23 36 52
97 100 98 86 85 77 46 20 27 22 17 16 19 20 21 28 39 36 39 38 36 36 75 28 24 19 18 23 24 18 14 19 21 19 20 28 20 21 22 27 24 31 21 21 22 26 36
96 96 100 92 87 84 77 43 22 26 19 17 18 19 20 25 36 41 44 39 39 58 78 33 25 25 25 20 20 16 16 16 17 17 21 22 20 25 24 22 21 22 22 24 25 34 82
84 74 85 96 89 86 79 72 32 25 23 18 17 18 20 28 37 42 40 44 63 69 32 35 30 26 26 24 26 21 19 21 28 39 31 23 24 21 21 24 23 25 32 78 66 84 79
78 78 92 98 86 89 88 77 63 26 26 21 17 17 20 28 39 44 38 57 76 45 34 26 28 28 32 24 27 28 28 32 18 20 40 61 53 29 22 27 31 26 32 88 84 83 70
88 73 100 78 98 79 94 87 79 48 24 23 18 16 18 26 38 36 53 80 70 45 31 32 33 39 33 32 32 33 33 30 24 26 64 54 39 26 27 24 28 35 42 35 76 54 65
88 73 98 92 97 100 89 92 87 74 36 24 20 17 21 27 40 31 62 74 56 28 26 31 49 41 46 37 38 38 40 25 32 23 26 40 63 30 30 26 27 39 37 58 82 80 84
86 64 86 89 96 100 100 100 100 85 51 26 19 26 34 36 37 38 83 80 48 26 26 39 45 45 41 37 42 40 42 33 24 23 23 28 57 44 32 37 37 37 70 66 78 82 88
85 85 97 70 88 96 100 99 100 98 88 46 40 75 48 38 50 63 85 64 35 28 27 30 33 40 42 41 44 41 46 41 26 27 36 37 77 69 40 33 30 34 57 72 88 83 87
99 83 99 89 87 96 100 100 100 100 94 89 55 74 64 46 85 94 73 47 39 33 30 34 36 36 31 44 66 46 49 38 32 37 44 48 65 78 66 68 35 38 53 80 79 80 83
68 85 86 100 91 90 92 100 100 100 100 85 81 99 89 60 93 87 78 63 56 42 32 31 34 32 41 46 62 69 53 43 34 49 47 59 90 83 83 78 71 61 46 57 68 88 81
12 44 85 96 100 83 94 83 95 100 100 95 98 96 84 98 98 93 76 74 63 59 43 35 38 47 66 73 59 66 58 51 41 64 39 69 81 83 84 80 73 79 77 56 64 62 70
13 9 17 23 70 93 94 82 100 99 100 100 97 95 91 84 76 90 90 96 75 62 61 53 69 49 72 72 74 73 74 70 70 61 66 75 91 85 87 79 88 92 84 81 74 65 70
17 9 14 31 44 70 75 94 100 100 100 98 98 96 79 94 94 94 97 94 84 76 84 70 66 68 77 74 72 80 75 82 65 76 87 75 91 96 92 81 88 86 76 70 77 83 75
28 12 17 49 58 80 74 94 100 100 97 99 93 88 87 99 94 91 96 87 88 84 94 74 70 75 71 61 61 63 65 73 78 90 86 89 89 95 97 90 97 60 75 76 74 77 73
71 16 12 44 44 71 87 94 99 73 99 100 99 92 92 100 94 98 96 98 99 99 97 91 84 71 62 78 92 93 90 87 95 90 93 94 90 98 100 97 72 65 75 65 60 61 86
65 18 10 51 70 85 99 96 82 84 100 100 100 100 94 95 98 96 97 94 98 98 97 100 82 78 86 94 95 92 93 82 92 86 88 95 96 95 96 100 94 70 73 59 60 74 64
70 23 31 100 92 100 90 76 75 100 100 100 99 100 95 94 100 99 98 97 97 99 96 98 85 91 97 98 96 92 90 87 87 88 98 96 97 93 92 94 83 76 51 48 67 65 58
75 47 90 100 100 96 83 70 73 100 100 100 99 100 93 95 99 99 100 99 100 90 96 97 94 97 97 99 95 91 93 90 91 85 89 90 94 96 92 96 93 52 57 64 74 63 43
88 37 92 100 100 98 85 84 84 99 100 100 100 98 94 91 99 100 100 100 98 93 79 88 92 86 81 94 97 94 96 98 86 94 82 84 81 88 80 79 72 47 70 62 59 58 57
Wind_Speed
9 9 9 8 7 6 4 2 0 1 2 4 7 9 10 10 9 8 7 6 6 6 5 5 5 3 4 4 4 5 5 4 4 6 4 2 2 1 1 5 0 5 5 5 4 5 5
11 10 11 10 9 8 6 4 3 1 1 2 4 6 7 6 6 6 6 6 7 6 4 5 5 4 4 1 4 4 4 5 4 9 5 5 4 5 8 5 5 6 8 7 3 3 2
13 12 12 12 12 10 9 7 5 3 2 2 3 4 5 4 2 4 5 6 7 5 4 5 4 9 5 3 2 3 4 7 5 6 3 3 6 2 4 6 6 10 4 6 3 2 2
16 14 13 14 13 12 11 9 7 5 4 4 4 4 5 3 1 3 5 6 7 5 5 4 4 7 4 4 4 3 3 3 6 5 5 6 8 5 4 7 4 4 2 3 2 3 1
18 17 16 15 15 14 13 11 9 8 6 5 5 5 4 3 2 1 4 6 7 4 5 3 4 5 3 3 5 5 3 5 8 5 5 5 6 4 4 3 3 4 1 3 3 3 3
20 19 18 17 16 16 15 14 12 10 8 7 6 5 4 4 2 2 4 2 5 8 2 4 5 3 3 3 4 4 4 4 4 4 3 1 2 4 2 3 1 4 2 3 1 3 3
22 21 20 18 17 17 16 15 14 12 10 8 6 6 5 4 2 2 4 2 3 3 8 6 3 3 1 3 9 5 4 5 3 1 1 1 1 5 7 6 2 4 4 4 4 3 3
25 24 22 20 19 18 17 17 16 14 12 10 8 7 6 4 3 2 2 1 2 2 6 6 6 6 5 5 2 7 2 2 2 2 1 1 5 5 3 4 3 2 1 2 2 1 2
29 25 24 23 21 19 18 18 17 16 14 12 10 9 8 6 4 2 2 1 1 4 0 2 4 3 2 6 3 6 4 3 5 4 5 6 3 2 3 4 4 6 4 5 3 8 5
33 29 27 25 23 21 20 19 18 17 16 14 12 10 9 6 4 3 2 2 1 2 3 3 2 2 2 4 2 7 4 3 2 5 6 5 1 2 2 5 5 1 5 4 6 7 3
33 34 31 27 25 23 21 20 19 19 17 16 14 12 11 10 4 5 2 3 1 1 4 1 2 1 5 3 1 4 5 5 5 4 1 1 4 4 4 3 4 2 2 2 2 3 4
29 28 33 30 27 25 23 22 21 20 19 17 15 13 12 12 9 4 4 3 0 0 5 3 2 3 3 1 2 2 2 4 4 3 8 4 2 4 2 2 2 1 3 4 1 1 2
25 27 29 35 30 27 25 24 22 21 20 18 16 14 13 12 10 8 7 3 1 3 2 3 2 4 1 3 3 1 2 3 1 2 3 3 3 2 2 3 3 4 2 1 3 2 3
28 27 28 33 35 31 29 26 24 22 20 19 17 16 15 13 10 11 10 2 4 2 3 2 3 2 2 4 2 3 3 4 2 2 2 4 2 3 4 3 2 3 2 3 3 2 2
32 25 31 29 43 42 33 29 26 24 21 20 18 16 16 15 13 14 7 3 5 1 7 8 2 4 3 2 0 5 3 3 4 4 4 1 2 2 4 4 3 1 1 1 3 2 3
33 24 26 24 34 46 43 33 29 26 23 21 20 15 13 14 14 15 1 3 4 3 6 5 6 8 7 7 4 5 7 2 4 1 2 2 3 1 1 3 1 1 2 2 1 1 4
35 30 27 21 29 37 40 38 34 28 25 23 19 9 10 15 16 8 4 5 3 4 3 6 4 4 4 6 5 4 5 2 2 2 4 1 3 2 2 4 3 2 1 2 3 3 4
32 30 31 21 24 24 41 42 40 37 32 28 19 2 13 21 6 3 3 2 3 4 2 1 1 3 5 6 4 3 4 4 4 2 1 1 3 2 3 3 5 4 2 4 3 4 3
33 35 27 26 23 24 23 35 39 37 37 34 17 9 16 25 5 3 3 2 2 4 4 5 3 2 1 4 4 4 6 1 2 4 2 1 1 1 3 4 1 4 3 3 4 2 5
37 34 35 30 30 28 28 27 31 31 39 36 14 4 4 11 4 4 5 4 5 3 4 2 4 5 4 3 4 4 3 2 3 4 3 2 2 5 5 3 3 2 4 5 5 3 3
34 36 35 33 33 32 29 28 34 33 37 40 15 5 10 5 7 6 9 8 7 6 3 7 1 4 6 4 3 5 4 4 2 4 3 3 3 3 4 2 2 3 5 9 11 9 5
32 33 32 34 34 35 36 35 38 38 44 37 14 9 10 9 8 14 8 7 12 5 7 6 4 8 5 6 6 8 7 5 5 4 3 3 2 3 5 0 5 5 11 11 16 12 11
29 29 30 31 33 35 37 36 38 44 49 20 18 17 14 10 7 10 7 8 11 15 2 2 8 5 5 4 12 13 12 10 8 7 4 5 5 2 4 2 4 8 15 17 5 5 8
26 27 29 31 32 32 35 37 40 42 33 37 34 22 11 3 6 9 11 9 13 14 8 3 6 5 10 21 24 19 21 19 15 12 8 6 6 3 3 3 3 7 3 3 9 5 10
26 27 29 31 30 32 36 37 32 32 31 47 31 27 12 4 8 5 15 8 20 13 5 5 3 6 29 9 3 4 3 4 5 6 5 6 3 2 2 4 8 3 3 5 6 7 1
27 27 29 29 28 31 34 33 32 30 39 50 26 32 16 13 8 8 8 19 5 4 4 4 16 25 10 4 2 5 5 4 2 2 4 2 3 2 2 3 7 5 3 5 2 5 2
27 23 26 25 25 32 30 29 27 33 47 47 27 21 13 9 10 17 5 11 11 8 4 8 11 7 2 2 2 3 3 1 4 7 5 4 2 8 7 5 8 3 9 8 5 6 9
31 26 25 30 25 32 30 24 29 35 50 32 28 23 17 8 13 11 12 12 11 12 5 13 7 2 1 3 3 4 3 5 2 4 7 8 8 5 4 5 10 16 6 7 5 9 8
29 31 34 25 33 31 26 25 26 33 48 36 23 21 18 10 9 12 13 13 11 14 11 28 1 8 12 3 1 3 2 2 3 3 3 3 6 6 10 6 2 28 4 10 7 3 5
Wind_Direction
255 248 241 237 231 231 237 240 259 34 78 101 108 113 111 106 93 81 63 52 38 29 33 39 36 78 102 74 18 355 3 16 65 69 60 43 240 358 106 77 91 75 104 74 71 52 44
255 251 246 241 236 230 230 232 229 215 156 126 131 131 124 113 93 65 46 41 24 16 27 32 29 78 69 170 348 9 28 37 58 70 53 44 40 71 76 55 21 103 106 121 115 106 100
255 254 248 244 239 233 230 228 225 225 204 193 175 164 152 138 94 41 29 18 8 13 12 6 79 90 36 112 42 53 68 51 58 93 59 88 99 16 127 120 121 148 121 163 111 61 88
253 252 250 246 242 237 232 230 224 217 214 211 207 197 192 194 236 13 13 6 4 18 20 38 91 78 78 65 47 57 81 57 77 83 96 100 94 73 42 119 136 223 264 192 67 330 50
252 251 249 247 243 238 234 231 227 224 218 216 216 212 205 205 232 348 4 13 28 20 39 74 93 113 76 50 35 54 87 95 78 77 86 87 80 105 125 240 185 197 279 102 142 36 330
253 249 248 247 245 241 236 231 229 227 224 222 222 220 209 201 212 323 350 2 8 32 73 73 81 88 42 338 24 38 76 114 99 82 61 36 193 185 226 350 36 333 1 110 46 36 314
254 249 244 245 245 243 238 234 230 228 226 224 222 218 215 209 210 317 340 2 9 351 50 72 43 90 45 73 57 30 78 88 70 291 255 143 334 62 48 46 3 352 351 340 68 57 327
251 248 245 239 241 241 240 234 229 229 226 221 216 212 204 203 210 268 322 56 290 156 87 65 72 60 62 81 84 9 87 352 257 85 304 207 67 29 14 14 335 331 296 347 111 132 223
241 246 244 240 237 237 238 236 231 226 224 220 214 207 202 196 204 241 257 268 146 142 296 80 83 72 51 78 55 1 67 29 22 63 52 72 55 348 330 54 355 58 13 20 333 320 233
236 237 243 240 235 235 234 232 232 228 223 219 214 206 198 192 215 217 242 207 211 235 250 128 131 19 14 100 61 32 57 70 51 75 56 65 33 355 96 77 349 121 11 355 330 6 314
237 239 236 237 235 233 232 231 227 227 223 218 213 207 199 191 182 188 246 214 289 87 317 74 128 123 68 49 105 15 54 60 57 94 236 84 31 5 50 34 327 127 342 6 328 297 34
227 244 244 230 234 232 230 229 226 221 221 219 212 206 201 203 211 211 196 201 308 277 254 106 126 142 179 124 82 41 32 73 126 103 51 93 76 31 53 130 13 110 247 207 222 238 25
235 252 267 228 228 232 229 226 224 221 215 215 212 206 204 204 208 200 182 156 292 221 40 154 162 190 270 130 128 251 165 141 356 118 157 151 62 103 330 213 197 238 258 323 353 5 250
246 244 245 243 216 226 227 224 221 217 214 211 207 205 204 205 202 186 170 159 226 358 159 69 92 134 225 160 99 151 176 180 122 308 316 161 259 3 336 34 17 0 26 131 237 340 308
227 257 244 242 220 218 222 223 220 213 209 207 205 204 209 206 200 183 159 187 208 162 116 141 104 210 171 179 226 200 209 65 62 48 150 22 82 102 27 347 355 20 118 117 86 274 55
223 244 233 240 247 228 216 220 217 212 203 202 198 195 208 202 191 180 173 236 207 52 122 153 193 193 189 173 183 193 160 2 119 38 4 146 115 323 137 271 357 24 182 99 348 20 279
228 236 245 236 233 240 214 216 213 205 198 192 182 170 201 187 176 170 192 226 131 152 163 183 216 145 274 156 205 194 119 352 24 127 302 55 119 129 91 216 163 165 107 48 107 147 192
222 229 231 237 251 224 222 219 215 206 195 183 172 150 195 171 146 199 180 226 120 158 190 175 281 80 180 137 186 216 133 66 39 121 107 37 107 155 86 39 355 325 334 149 138 244 232
226 228 222 218 217 221 234 233 211 206 201 186 166 173 188 179 164 198 252 151 164 159 191 179 150 89 7 131 132 79 79 23 59 32 100 204 15 25 319 359 313 251 201 105 93 80 221
230 228 231 218 219 221 222 243 214 222 202 183 162 155 147 194 163 161 168 198 181 191 175 181 117 103 111 109 36 143 126 135 120 105 87 92 91 170 200 205 136 219 204 186 152 162 208
229 230 232 223 218 217 223 243 233 227 221 189 180 181 171 177 210 201 193 175 147 165 212 167 268 216 158 120 115 167 114 133 116 131 69 84 159 24 289 163 178 219 226 197 209 217 213
226 226 229 234 223 220 216 228 246 221 223 187 165 149 170 177 175 171 185 194 173 137 142 217 208 182 159 150 181 186 132 164 184 164 126 7 135 80 301 356 149 241 248 241 242 241 256
229 226 226 229 226 221 223 224 237 240 218 191 197 184 184 167 147 179 191 177 186 128 203 269 180 122 122 133 116 99 110 103 128 135 139 135 123 109 257 354 330 295 235 218 196 195 212
234 232 230 229 228 225 220 219 231 236 230 218 204 183 162 171 181 192 164 170 166 175 135 175 147 117 145 129 106 93 81 77 79 43 54 143 136 143 253 25 260 239 135 135 213 229 216
240 233 233 230 228 225 218 219 220 229 234 222 211 199 182 128 166 148 158 123 109 103 93 92 49 143 142 127 99 87 31 36 27 24 9 11 149 190 191 214 292 293 229 167 160 270 224
237 231 230 227 219 218 211 214 219 224 230 216 216 201 187 123 201 158 132 161 138 118 107 84 125 147 157 170 130 163 190 172 230 32 29 9 10 156 105 208 239 240 223 175 129 283 146
234 232 219 222 210 209 202 206 215 219 221 207 194 184 171 110 147 156 160 167 141 125 99 134 156 174 165 156 138 160 204 157 178 177 164 134 180 217 210 241 282 201 160 152 98 242 158
230 222 206 212 210 192 196 206 207 211 206 196 189 177 180 119 145 159 149 147 144 146 138 150 122 192 148 183 161 187 169 204 144 147 174 168 161 187 185 223 270 157 128 172 163 139 168
221 208 205 208 210 205 193 190 185 195 196 191 185 176 180 137 138 142 142 152 171 163 143 165 168 155 168 148 148 98 135 125 183 231 350 231 195 182 191 210 138 182 160 168 162 155 197